Weather in Lysyanka

Ukraine / Cherkassi District     49°15′24″N   30°49′24″E
temp.,
°C
wind,
m/s
gust,
m/s
humid.,
%
clouds,
%
prec.,
mm/h
press.,
hPa
HPBL,
m
23 april, fri
fri2300:00+9s6158147 0.0 1016398
03:00+8s4989100 0.7 1016270
06:00+7sw349779 0.9 1016108
09:00+7nnw5787100 0.9 1017427
12:00+5nnw5888100 0.2 1018536
15:00+9nw3663100 0.4 10181105
18:00+8wnw2557100 0.0 1017848
21:00+5sw347362 0.0 101946
24 april, sat
sat2400:00+4wnw378185 0.0 1019178
03:00+2w410850 0.0 1019251
06:00+1w410870 0.0 1019230
09:00+6w595878 0.0 1019847
12:00+4nw7106845 0.6 1021988
15:00+8nw81141100 0.6 10212774
18:00+8wnw6104851 0.1 10212260
21:00+3w36665 0.1 102287
25 april, sun
sun2500:00+2w357518 0.0 102383
03:00+1wsw36795 0.0 102292
06:00+1sw37805 0.0 1021110
09:00+7sw595975 0.0 1020614
12:00+8w7870100 0.1 10191202
15:00+9w586897 0.6 10191154
18:00+7nw477599 0.3 1019722
21:00+3nnw227984 0.3 102012
26 april, mon
mon2600:00+2w33795 0.0 102034
03:000wnw33785 0.0 102040
06:000wnw34770 0.0 102048
09:00+6w46535 0.0 1020765
12:00+9w5640100 0.0 10192517
15:00+11w6838100 0.0 10172526
18:00+9wnw565094 0.0 10161672
21:00+5nnw226523 0.1 101717
27 april, tue
tue2700:00+3se116645 0.0 101710
03:00+3s3681100 0.4 1016247
06:00+4sse4695100 1.5 1014527
09:00+3s3596100 2.1 1013412
12:00+4nw5789100 0.6 1015714
15:00+6nnw458094 0.7 1015732
18:00+6nw237182 0.0 1016721
21:00+3se228426 0.0 101716